Wetbulb
49.62 51.55 52.11 51.54 51.09 50.83 47.26 47.68 45.98 47.69 50.29 53.15 55.74 56.09 57.41 59.32 60.70 60.85 62.48 62.30 63.18 68.38 67.66 68.36 68.51 68.45 69.09 68.99 68.58 67.11 65.80 64.75 64.38 64.96 64.20 62.82 61.64 61.41 62.31 64.31 64.94 64.68 63.50 62.60
48.19 51.96 51.26 50.33 53.22 52.12 51.33 50.74 49.68 50.75 50.91 57.96 57.03 58.76 58.49 59.31 60.11 59.66 59.68 60.77 62.16 69.25 69.36 69.24 68.54 68.22 68.22 68.16 67.51 66.53 65.19 64.13 64.54 63.88 62.81 63.11 62.75 63.11 62.74 63.56 64.37 63.01 62.99 62.89
44.60 50.55 50.06 47.64 50.06 52.40 52.14 52.46 50.71 47.51 53.10 57.62 56.96 57.81 56.67 56.93 58.23 58.63 59.14 60.27 61.50 63.26 68.32 68.89 68.56 68.65 67.94 67.28 67.05 65.57 64.58 64.62 64.14 62.85 63.46 62.59 62.89 62.33 63.08 63.65 63.30 61.55 62.12 61.76
44.29 45.86 40.28 49.07 54.48 55.46 54.33 54.26 56.45 58.02 58.08 57.89 57.93 57.90 58.15 57.71 56.91 57.50 59.60 60.48 61.00 62.26 67.37 68.59 69.07 68.46 68.68 67.37 66.43 65.26 65.04 64.46 63.48 63.55 62.50 62.03 62.29 63.91 63.12 63.38 62.52 61.71 61.57 61.40
43.80 43.44 47.23 51.42 53.67 54.37 52.63 53.30 58.94 57.85 58.11 58.47 60.56 60.85 59.45 62.45 62.18 61.37 61.59 62.05 62.13 62.81 62.78 69.25 68.98 68.87 68.13 66.79 66.16 64.52 64.75 63.55 64.11 64.00 61.48 61.96 63.01 62.22 62.77 62.19 62.50 61.49 61.68 60.64
45.69 42.27 41.77 49.72 57.40 58.52 57.20 47.89 58.56 58.54 57.07 56.90 58.26 53.51 56.75 61.02 63.37 63.17 63.92 63.93 63.40 64.07 66.59 68.97 68.97 68.79 67.08 65.76 64.50 63.75 64.07 63.90 64.31 63.09 62.43 62.81 62.64 62.24 62.50 63.10 62.25 62.31 61.01 60.70
46.36 44.00 47.59 54.47 57.61 59.22 47.80 49.62 59.68 61.07 59.77 58.78 56.90 58.31 60.27 61.84 62.31 62.24 63.27 62.72 63.81 64.80 63.63 69.06 69.19 67.81 65.55 64.50 63.68 63.63 63.74 63.87 64.10 62.27 62.91 64.08 62.79 63.15 62.41 62.40 62.47 61.23 60.12 59.28
48.55 46.43 44.16 59.59 56.17 52.33 56.28 58.85 60.42 60.69 60.80 60.10 61.13 60.73 61.29 62.59 62.81 63.61 63.69 64.96 65.49 64.46 65.25 69.40 67.38 66.18 63.69 62.63 63.96 64.40 64.15 63.25 62.60 62.38 64.49 63.71 63.28 63.32 62.50 61.97 61.82 60.05 59.26 56.03
51.48 52.55 58.67 61.27 60.46 61.33 60.96 58.97 58.89 58.82 59.84 59.69 58.63 58.75 59.59 59.16 59.38 61.04 61.86 62.71 64.23 65.11 66.04 68.28 67.76 66.60 64.20 64.51 65.20 64.44 63.58 63.34 63.29 64.13 63.80 63.63 62.01 62.29 61.64 60.96 59.91 59.51 56.38 54.73
53.48 55.60 57.86 59.42 61.33 61.08 61.13 59.65 59.37 57.96 56.98 56.97 55.45 56.78 56.49 57.32 57.14 58.14 58.59 59.10 60.55 61.63 63.67 65.43 67.12 66.53 67.20 67.31 66.75 64.32 62.15 61.07 59.77 59.70 60.46 62.48 62.74 62.57 61.32 61.50 58.62 56.51 55.02 54.01
54.24 56.05 57.26 58.45 59.12 58.45 58.69 58.18 57.76 57.30 56.50 55.42 54.61 53.59 54.12 54.69 54.93 55.32 56.33 57.25 57.44 57.76 58.66 60.49 65.56 64.23 64.16 63.11 61.85 60.81 60.43 58.71 58.58 59.16 59.31 60.32 60.46 59.30 60.03 55.86 56.88 55.47 55.00 53.06
49.34 53.98 56.86 56.70 57.66 58.74 57.14 56.40 56.63 55.86 54.81 55.31 54.87 53.36 53.57 53.26 54.60 54.95 55.13 55.74 54.91 56.09 56.44 57.37 63.72 60.48 61.23 62.06 61.04 58.36 57.49 57.18 58.04 57.85 57.75 58.55 60.18 53.59 49.49 48.49 48.42 45.87 46.04 51.57
54.70 57.13 58.67 59.15 59.55 59.82 56.87 55.74 55.90 54.41 54.08 52.62 53.25 53.43 52.31 53.26 54.42 55.04 54.55 56.20 56.68 57.21 57.73 58.65 61.89 58.46 59.18 58.28 59.54 58.56 57.45 57.17 56.77 55.50 56.81 57.17 57.61 52.91 52.44 52.65 47.70 45.77 45.68 43.79
56.30 56.81 54.46 56.00 55.51 57.75 57.26 56.49 55.85 55.21 54.30 53.66 53.05 53.93 53.63 53.51 54.59 54.60 56.36 57.76 57.25 57.23 57.49 58.69 63.20 59.40 59.73 60.03 59.09 57.93 56.97 55.92 57.51 58.67 60.01 58.31 57.65 55.44 54.55 52.88 52.37 50.50 46.96 46.39
53.24 53.48 53.25 53.36 53.63 53.94 54.48 54.44 53.72 52.80 53.01 53.11 54.53 54.70 55.02 53.59 53.86 55.27 58.14 57.75 57.85 58.55 59.05 61.60 61.81 61.96 62.27 62.25 61.40 60.31 58.74 59.67 59.67 59.18 57.82 57.38 58.66 59.01 57.83 55.52 57.21 56.87 56.18 49.12
52.71 52.42 52.56 52.39 52.62 54.12 54.55 54.73 51.77 51.60 53.48 55.78 55.44 56.23 56.82 56.55 55.56 56.67 57.63 57.06 55.35 57.36 60.15 60.83 60.60 59.16 59.46 59.02 57.56 56.96 58.06 58.42 58.79 59.10 58.32 57.30 58.10 57.64 58.54 57.64 57.47 57.27 56.62 53.73
49.79 49.75 52.38 52.43 53.78 54.49 54.39 54.75 55.21 55.21 55.98 55.42 55.11 55.98 56.12 56.02 56.37 56.22 56.39 57.76 59.75 59.91 60.62 60.67 57.98 58.44 59.15 57.51 55.82 57.54 58.18 57.84 57.81 58.82 58.09 56.58 57.38 54.47 54.71 56.46 56.27 53.13 52.12 51.46
53.36 53.66 53.76 53.42 53.94 54.86 56.14 57.38 57.61 57.93 57.58 57.54 57.21 57.20 56.40 55.65 55.59 55.23 57.76 59.86 59.69 60.53 60.74 60.60 60.29 58.21 57.11 56.28 55.22 54.62 55.65 58.90 57.96 56.59 57.45 56.40 55.53 56.26 55.56 56.12 56.77 54.09 50.87 47.45
55.37 55.18 55.95 57.41 57.19 56.61 56.42 57.22 57.69 58.30 58.60 58.63 58.83 57.78 58.46 58.10 57.67 58.81 61.08 59.41 58.01 57.71 58.42 59.41 60.44 58.95 56.97 57.13 56.45 55.38 56.08 55.94 57.48 56.48 55.34 54.62 55.95 56.83 56.62 56.54 55.98 54.88 52.36 47.68
56.83 58.03 58.22 58.45 58.66 57.76 56.91 57.44 57.67 57.50 58.33 58.88 59.04 58.48 57.07 58.10 60.29 59.25 57.98 55.98 56.85 58.77 57.94 58.64 59.42 58.31 56.66 57.05 58.67 56.51 57.29 56.95 56.27 56.61 56.34 56.16 56.21 56.04 54.95 51.70 52.47 49.80 47.89 47.09
57.56 58.13 57.43 57.16 56.48 56.72 56.72 57.10 56.69 56.03 57.27 58.09 57.81 57.19 56.94 57.88 58.56 59.40 56.47 54.42 54.89 56.38 58.41 59.37 58.41 56.74 55.39 55.46 56.02 55.28 55.07 55.20 56.25 56.65 56.12 55.12 54.56 54.94 53.93 49.40 48.48 47.15 46.76 46.78
57.08 56.78 56.22 56.26 55.51 54.68 55.34 55.31 54.55 55.59 56.37 57.21 58.24 58.07 57.36 57.07 56.77 55.71 56.69 54.99 54.67 52.87 57.14 57.41 53.79 54.30 56.02 55.54 54.69 53.40 53.59 54.53 54.67 54.19 53.03 52.81 52.48 50.62 48.73 48.06 46.26 46.61 46.40 45.31
56.76 57.00 56.23 55.20 54.67 54.10 54.03 52.63 52.09 52.82 53.94 55.22 54.51 56.04 54.74 52.98 54.75 54.26 51.74 53.61 54.71 51.87 53.60 49.77 49.95 51.38 51.68 50.40 52.47 53.50 53.09 53.02 52.84 51.53 50.98 50.28 48.50 46.11 44.59 45.16 44.43 43.99 43.66 42.74
56.80 55.85 54.90 55.55 55.20 54.03 51.68 52.13 51.10 51.54 51.75 52.88 53.24 53.36 55.23 50.48 49.31 50.56 49.13 48.70 48.92 50.35 48.66 48.83 48.67 48.84 49.29 47.15 49.09 51.56 50.37 49.99 47.84 46.66 45.56 44.94 44.77 44.38 44.48 44.04 43.11 42.79 42.85 43.13
56.57 55.77 54.79 54.34 53.92 53.15 51.75 50.88 50.37 50.50 52.52 51.89 51.55 52.20 50.38 51.21 49.86 48.63 47.91 46.93 47.31 48.75 48.08 47.98 48.71 49.12 49.44 48.85 48.95 48.51 46.46 45.77 46.66 46.04 45.35 44.88 44.25 44.34 44.46 44.33 44.38 44.04 43.83 43.48
55.79 55.10 54.71 55.42 55.09 55.62 54.34 53.33 50.54 49.30 48.76 48.46 49.02 49.59 49.96 50.06 49.65 49.36 49.07 48.81 47.56 47.26 47.03 49.34 49.34 48.67 48.78 48.73 49.09 48.25 47.00 45.92 45.91 45.56 45.70 45.73 44.83 44.05 43.69 43.36 44.23 44.86 44.49 44.00
55.45 51.17 53.98 54.37 54.62 55.51 54.80 54.32 53.86 52.91 52.64 51.98 50.39 50.08 50.09 50.18 49.31 48.95 48.47 48.48 48.46 47.84 48.87 48.39 47.90 47.95 47.35 48.14 48.72 47.89 46.60 45.17 43.99 46.09 46.70 46.59 46.04 45.87 45.72 45.51 45.57 45.46 45.02 44.64
MSLP
996.87 996.55 996.49 996.15 996.64 997.32 998.47 999.44 1000.64 1000.74 1001.13 1001.02 1001.46 1001.87 1002.08 1002.49 1003.05 1003.59 1003.87 1004.11 1004.53 1005.13 1006.07 1006.49 1007.11 1007.71 1008.62 1009.24 1009.88 1010.45 1011.37 1012.28 1012.97 1013.52 1014.07 1014.61 1014.98 1015.03 1014.99 1015.06 1014.98 1014.95 1015.01 1014.84
997.10 996.33 996.11 996.31 996.29 996.39 997.03 997.86 998.71 999.36 999.85 999.75 1000.57 1001.66 1002.53 1003.02 1003.44 1004.01 1004.29 1004.58 1004.99 1005.59 1005.99 1006.52 1007.14 1007.84 1008.44 1009.11 1009.93 1010.69 1011.59 1012.41 1012.96 1013.42 1013.78 1014.25 1014.61 1014.89 1014.77 1014.74 1014.59 1014.69 1014.72 1014.63
997.36 996.87 996.42 996.21 995.56 995.75 995.93 996.54 997.44 998.63 999.42 999.75 1000.97 1002.07 1002.78 1003.41 1003.84 1004.41 1004.69 1005.00 1005.46 1006.03 1006.32 1006.55 1007.28 1007.93 1008.71 1009.34 1010.08 1010.86 1011.54 1012.10 1012.73 1013.19 1013.53 1013.88 1014.19 1014.47 1014.49 1014.43 1014.37 1014.46 1014.39 1014.22
997.43 997.43 996.55 995.62 995.02 994.95 995.21 995.95 996.89 998.06 999.26 1000.09 1001.26 1002.39 1002.85 1003.42 1003.90 1004.47 1004.91 1005.19 1005.54 1006.01 1006.46 1006.58 1006.85 1007.43 1008.15 1008.96 1009.69 1010.48 1011.19 1011.91 1012.39 1012.82 1013.21 1013.52 1013.82 1014.18 1014.24 1014.21 1014.31 1014.37 1014.36 1014.09
997.61 997.52 996.93 995.89 995.34 995.35 995.17 996.39 996.60 998.81 999.63 1000.42 1001.80 1002.73 1003.97 1003.80 1004.05 1004.67 1005.03 1005.34 1005.61 1005.86 1005.96 1006.45 1007.04 1007.49 1008.20 1009.02 1009.64 1010.35 1010.77 1011.34 1011.99 1012.51 1012.97 1013.35 1013.71 1013.97 1014.11 1014.18 1014.09 1013.95 1013.73 1013.71
997.90 997.97 997.01 996.18 995.19 994.97 995.68 997.25 997.36 998.05 999.93 1000.93 1001.78 1004.01 1005.02 1004.62 1004.65 1004.95 1005.09 1005.45 1005.75 1005.73 1005.82 1006.28 1006.90 1007.39 1008.17 1009.00 1009.54 1010.11 1010.51 1010.90 1011.41 1012.04 1012.60 1013.08 1013.52 1013.83 1013.69 1013.67 1013.65 1013.43 1013.25 1013.20
998.52 998.14 997.04 995.87 995.53 995.38 997.07 999.50 998.84 999.23 1000.37 1001.55 1002.99 1003.88 1004.61 1004.78 1005.19 1005.15 1005.35 1005.67 1005.68 1005.78 1006.04 1006.45 1006.77 1007.23 1008.03 1008.78 1009.38 1009.95 1010.47 1010.75 1011.24 1011.93 1012.55 1013.00 1013.45 1013.61 1013.79 1013.79 1013.87 1013.53 1013.29 1012.85
999.01 998.67 998.07 996.96 996.17 997.27 999.06 999.58 999.87 1000.48 1001.41 1002.39 1003.53 1004.36 1004.89 1005.35 1005.52 1005.82 1006.20 1006.17 1006.31 1006.11 1006.12 1006.37 1006.84 1007.44 1008.26 1008.92 1009.31 1009.57 1010.15 1010.89 1011.44 1011.91 1012.43 1012.66 1013.17 1013.30 1013.30 1013.55 1013.55 1013.13 1013.36 1013.04
998.49 999.42 999.29 998.73 999.07 998.98 998.89 1000.10 1001.01 1001.44 1002.33 1002.82 1003.96 1004.83 1005.33 1005.86 1006.23 1006.53 1006.67 1006.95 1007.06 1006.99 1006.85 1006.39 1006.46 1007.02 1007.89 1008.03 1008.31 1008.71 1009.77 1010.97 1011.63 1011.95 1012.51 1012.38 1012.63 1012.96 1012.91 1012.93 1013.27 1013.21 1013.38 1013.37
999.03 1000.53 1000.05 999.65 999.29 1001.00 1000.35 1000.78 1001.67 1002.13 1002.87 1003.52 1004.56 1005.19 1005.88 1006.36 1006.71 1006.99 1007.01 1007.21 1007.38 1007.43 1007.57 1007.57 1007.47 1007.99 1008.17 1009.33 1009.63 1009.70 1011.03 1011.99 1012.15 1012.67 1012.88 1013.30 1012.94 1012.43 1012.67 1012.69 1012.82 1013.16 1013.43 1013.60
1000.05 1000.59 1000.62 1000.81 1001.17 1000.99 1001.07 1001.46 1002.28 1003.03 1003.69 1004.45 1005.15 1005.91 1006.33 1006.78 1007.07 1007.20 1007.31 1007.47 1007.61 1007.79 1007.99 1008.17 1007.93 1008.49 1008.89 1009.63 1010.04 1010.69 1011.99 1011.62 1012.29 1012.47 1012.69 1012.02 1012.12 1012.83 1012.73 1012.72 1012.39 1012.47 1013.29 1013.61
1002.57 1001.75 1001.01 1001.79 1001.79 1001.82 1002.57 1003.16 1003.43 1003.92 1004.73 1005.30 1005.78 1006.19 1006.43 1006.83 1007.03 1007.22 1007.41 1007.60 1007.87 1008.05 1008.16 1008.22 1008.27 1008.82 1009.00 1009.40 1009.91 1010.80 1011.79 1011.39 1011.37 1010.85 1011.16 1011.92 1012.21 1013.01 1012.88 1012.76 1012.85 1012.33 1013.11 1013.15
1002.31 1002.09 1001.50 1001.90 1002.71 1002.69 1003.30 1003.99 1004.40 1004.79 1005.20 1005.53 1005.82 1006.11 1006.39 1006.91 1007.04 1007.23 1007.41 1007.62 1007.89 1008.13 1008.22 1008.26 1008.79 1009.10 1009.41 1009.61 1009.35 1009.94 1010.50 1010.54 1010.75 1011.06 1011.24 1011.63 1011.78 1012.45 1012.84 1013.41 1013.11 1012.48 1013.29 1013.53
1002.85 1002.71 1003.21 1003.19 1004.12 1003.93 1003.79 1004.49 1004.83 1005.15 1005.47 1005.65 1005.81 1006.00 1006.28 1006.63 1006.87 1007.13 1007.31 1007.49 1007.55 1007.75 1007.97 1008.12 1008.54 1009.09 1009.24 1009.33 1009.76 1010.19 1010.45 1010.64 1010.76 1010.79 1010.75 1011.11 1011.11 1011.93 1012.55 1012.68 1012.78 1013.09 1013.05 1013.26
1003.35 1003.60 1003.97 1004.05 1004.40 1004.58 1004.37 1004.70 1005.24 1005.34 1005.44 1005.64 1005.66 1005.90 1006.09 1006.48 1006.81 1006.91 1007.09 1007.05 1007.25 1007.54 1007.81 1007.87 1008.06 1008.40 1008.78 1009.23 1009.55 1009.94 1010.30 1010.29 1010.15 1010.20 1010.57 1010.57 1010.53 1011.01 1011.87 1012.62 1012.96 1012.63 1012.66 1012.63
1004.01 1003.84 1004.07 1004.47 1004.77 1004.75 1005.05 1005.36 1005.46 1005.55 1005.51 1005.65 1006.01 1006.22 1006.31 1006.30 1006.35 1006.63 1006.88 1006.95 1007.19 1007.61 1007.69 1007.69 1007.88 1008.44 1008.56 1009.13 1009.57 1009.85 1009.89 1009.73 1009.87 1010.15 1010.45 1010.85 1010.71 1010.89 1010.97 1011.79 1012.26 1012.63 1012.64 1012.36
1004.18 1004.41 1004.63 1004.92 1005.15 1005.17 1005.40 1005.55 1005.45 1005.48 1005.51 1005.69 1005.96 1006.21 1006.39 1006.40 1006.45 1006.72 1006.89 1006.82 1007.11 1007.55 1007.77 1008.07 1008.36 1008.25 1008.60 1009.13 1009.61 1009.81 1009.89 1009.90 1009.62 1009.66 1010.44 1010.69 1010.68 1010.93 1011.19 1011.90 1011.91 1012.29 1012.13 1012.19
1004.39 1004.53 1004.74 1005.09 1005.29 1005.51 1005.85 1006.04 1005.99 1006.08 1006.29 1005.88 1006.00 1006.38 1006.41 1006.55 1006.80 1006.77 1006.94 1006.93 1007.58 1008.02 1008.27 1008.46 1008.44 1008.51 1008.77 1009.12 1009.39 1009.74 1009.91 1009.87 1009.97 1009.99 1010.17 1010.59 1010.99 1011.22 1011.39 1011.25 1012.09 1012.16 1012.31 1012.56
1004.11 1004.49 1004.82 1005.29 1005.63 1006.03 1006.31 1006.40 1006.55 1006.62 1006.67 1006.77 1006.57 1006.70 1006.87 1006.85 1006.78 1006.98 1007.18 1007.58 1008.04 1008.37 1008.95 1008.73 1008.73 1008.76 1008.91 1009.02 1009.33 1009.50 1009.54 1009.41 1009.80 1010.12 1010.25 1010.48 1010.71 1010.90 1011.01 1011.23 1011.61 1011.86 1012.37 1012.98
1004.57 1004.96 1005.42 1005.80 1006.23 1006.60 1007.03 1007.33 1007.32 1007.37 1007.47 1007.46 1007.29 1006.98 1007.01 1007.09 1007.09 1007.29 1007.82 1008.55 1009.01 1009.10 1009.10 1008.95 1008.90 1009.03 1009.17 1009.13 1009.02 1009.26 1009.35 1009.72 1010.06 1010.56 1010.72 1010.81 1010.73 1010.90 1011.44 1011.41 1011.27 1011.92 1012.60 1012.99
1005.50 1005.60 1006.01 1006.59 1007.26 1007.48 1007.84 1008.17 1008.29 1008.35 1008.20 1007.92 1007.59 1007.37 1007.21 1007.41 1007.37 1007.89 1008.47 1009.01 1009.47 1009.31 1009.29 1009.11 1009.24 1009.41 1009.46 1009.51 1009.54 1009.79 1009.98 1010.18 1010.39 1010.70 1011.02 1011.23 1011.26 1011.33 1011.45 1011.67 1011.80 1012.24 1012.80 1013.24
1006.35 1006.51 1006.91 1007.31 1007.75 1008.39 1008.73 1008.96 1009.05 1008.83 1008.50 1008.31 1007.95 1007.54 1007.56 1008.07 1008.31 1008.52 1008.68 1009.12 1009.55 1009.49 1009.45 1009.48 1009.63 1009.67 1009.64 1009.80 1009.76 1009.99 1010.20 1010.28 1010.42 1010.68 1010.89 1011.05 1011.29 1011.58 1011.95 1012.11 1012.62 1012.99 1013.34 1013.73
1006.87 1007.20 1007.60 1008.04 1008.39 1008.99 1009.30 1009.46 1009.52 1009.39 1009.29 1009.08 1008.74 1008.37 1008.41 1008.63 1008.62 1008.97 1009.47 1009.49 1009.57 1009.74 1009.72 1010.03 1010.00 1010.03 1010.12 1010.15 1010.06 1010.02 1010.27 1010.39 1010.47 1010.79 1011.34 1011.65 1011.97 1012.23 1012.44 1012.79 1013.25 1013.56 1013.99 1014.29
1007.70 1007.91 1008.26 1008.47 1008.85 1009.23 1009.48 1009.44 1009.67 1009.67 1009.65 1009.43 1009.21 1009.04 1008.69 1008.94 1009.31 1009.36 1009.62 1009.75 1009.85 1009.86 1010.09 1010.18 1010.20 1010.17 1010.11 1010.25 1010.15 1010.25 1010.11 1010.31 1010.60 1010.86 1011.31 1011.61 1012.03 1012.42 1012.89 1013.24 1013.65 1013.91 1014.24 1014.57
1008.01 1008.30 1008.51 1008.73 1009.03 1009.31 1009.45 1009.53 1009.63 1009.69 1009.64 1009.57 1009.48 1009.37 1009.22 1008.98 1009.29 1009.80 1009.88 1010.00 1010.03 1010.02 1010.19 1010.19 1010.18 1010.02 1009.83 1009.89 1009.86 1010.23 1010.51 1010.70 1010.86 1011.16 1011.52 1011.94 1012.37 1012.86 1013.26 1013.51 1013.82 1014.14 1014.49 1014.81
1008.31 1008.48 1008.63 1008.65 1008.63 1008.66 1008.81 1009.14 1009.41 1009.65 1009.77 1009.75 1009.81 1009.76 1009.76 1009.72 1009.76 1009.89 1009.99 1009.99 1010.07 1010.12 1010.14 1009.97 1009.97 1009.95 1009.95 1010.06 1010.36 1010.61 1010.84 1011.03 1011.16 1011.41 1011.73 1012.12 1012.53 1012.93 1013.28 1013.62 1013.91 1014.20 1014.53 1014.77
1008.39 1008.35 1008.37 1008.39 1008.33 1008.26 1008.13 1008.27 1008.65 1008.97 1009.13 1009.21 1009.53 1009.76 1009.82 1009.91 1009.98 1010.07 1010.11 1010.19 1010.22 1010.24 1010.19 1010.05 1010.09 1010.11 1010.14 1010.28 1010.44 1010.72 1011.07 1011.29 1011.47 1011.68 1011.85 1012.30 1012.64 1012.97 1013.30 1013.56 1013.79 1014.03 1014.35 1014.56
Wind_Speed
11 13 10 14 16 14 9 8 10 12 14 12 7 11 12 10 9 9 6 6 5 4 8 10 9 11 12 12 12 13 11 8 7 7 7 5 3 3 4 4 3 2 2 5
7 16 13 15 17 18 19 12 5 7 6 15 14 11 10 10 10 8 7 6 6 6 7 8 10 11 10 10 10 12 10 6 6 7 6 4 3 6 5 5 2 1 4 5
9 9 7 9 8 9 11 12 9 8 7 19 14 12 9 8 9 8 7 6 6 4 7 8 9 9 9 10 11 10 9 8 7 7 6 5 6 5 5 4 2 2 5 5
6 5 8 9 6 8 12 14 8 16 14 13 12 9 11 8 9 8 9 7 5 4 3 6 9 11 11 13 12 12 9 8 7 7 6 6 6 5 3 2 3 4 5 5
7 6 4 8 11 5 7 2 24 15 15 19 17 17 9 9 9 9 8 5 2 3 2 7 8 8 10 10 9 9 10 8 7 7 7 6 5 4 3 3 4 5 4 4
4 6 13 8 4 9 5 1 14 24 17 17 13 7 4 6 8 8 7 3 1 5 2 8 8 9 11 10 11 10 9 8 7 7 7 5 5 5 4 4 5 4 5 3
3 4 4 5 7 4 10 8 14 17 13 10 7 7 7 8 6 6 5 1 3 2 1 7 8 10 10 10 11 7 6 7 7 6 5 4 4 3 4 5 5 5 5 0
2 3 2 10 9 7 7 8 15 17 16 17 13 10 10 9 10 10 9 9 10 3 4 7 7 9 7 7 6 8 7 7 7 6 3 3 6 6 6 5 6 6 5 1
5 1 1 15 13 7 13 13 8 12 9 13 12 10 10 8 9 8 8 7 7 9 8 5 11 12 11 11 10 8 9 7 6 6 2 5 5 6 5 3 4 5 2 2
11 2 8 14 15 8 11 13 10 11 12 12 11 10 9 8 7 6 5 5 5 8 9 9 4 6 7 11 9 13 11 10 8 7 8 11 7 5 4 5 4 3 3 2
10 7 9 11 8 10 14 14 15 13 12 11 11 8 7 5 4 4 4 5 6 6 5 6 4 6 7 12 13 13 8 7 5 4 8 13 8 5 3 2 2 5 4 3
2 9 8 7 8 12 13 12 11 12 10 8 8 6 6 4 2 3 3 3 4 5 6 7 5 6 7 9 10 12 9 6 6 9 8 6 5 2 8 7 5 14 8 5
6 6 11 11 8 11 12 10 9 10 8 6 4 2 3 2 2 1 1 1 3 4 5 5 7 6 5 5 11 12 8 9 6 4 6 7 5 7 7 2 1 11 5 4
6 9 11 13 4 7 8 8 7 6 2 2 3 1 2 3 2 3 3 5 3 2 5 4 8 9 8 7 4 3 5 6 5 5 4 2 7 5 3 5 5 3 3 4
6 8 7 6 7 6 6 4 1 3 2 2 1 2 3 4 4 5 5 4 1 3 6 5 4 5 8 12 12 8 5 4 4 3 4 4 6 8 6 4 1 2 2 2
7 8 7 5 4 6 3 2 3 3 3 4 6 5 5 4 4 3 5 3 2 1 2 0 3 5 4 6 6 3 3 8 5 2 5 2 5 6 7 5 4 3 4 3
6 4 3 4 5 5 4 4 3 3 2 4 3 5 4 4 3 5 3 2 7 6 6 7 5 4 5 4 4 3 3 2 1 5 6 4 4 4 5 3 4 4 3 3
4 5 6 5 5 6 7 8 10 9 8 5 1 3 3 3 1 2 3 5 8 8 7 6 5 6 6 5 4 3 3 4 4 3 5 5 4 5 6 6 3 2 2 2
4 5 5 8 8 7 6 6 7 7 7 7 6 5 6 7 1 6 8 7 6 6 5 6 10 7 5 4 1 1 1 5 6 4 4 6 4 3 4 4 2 5 4 2
6 9 9 7 8 7 7 9 8 7 7 7 7 6 5 3 6 9 10 8 5 3 2 5 6 5 4 6 6 4 4 5 6 4 0 2 3 4 2 3 4 7 6 4
6 7 8 8 10 11 9 8 7 6 6 6 6 6 4 5 6 8 7 5 3 5 3 6 3 1 3 1 2 4 5 5 4 4 1 2 2 4 3 4 7 6 6 5
5 7 7 7 8 8 8 6 5 6 6 7 8 5 7 7 7 8 7 6 3 4 1 1 3 5 3 5 3 3 5 5 4 3 1 2 2 5 4 6 6 5 6 6
6 6 7 6 8 5 4 2 4 5 5 6 6 7 6 3 3 4 4 3 4 3 5 4 4 6 5 3 1 2 2 5 4 6 4 4 6 5 5 6 6 6 6 6
6 6 6 6 5 3 1 1 4 2 2 4 5 6 3 5 5 5 5 7 7 4 5 3 1 4 5 3 4 4 1 6 6 5 6 7 6 6 6 6 6 5 5 6
6 5 5 4 5 4 5 3 3 2 2 3 4 5 6 5 5 3 5 4 4 3 3 3 5 7 3 3 5 6 6 5 5 6 5 6 6 6 5 5 5 6 6 6
5 4 4 5 4 4 5 6 4 4 3 3 2 3 3 3 4 4 3 3 3 2 1 2 2 4 5 5 6 6 5 4 5 5 6 6 6 6 6 5 5 6 5 5
2 1 3 3 3 4 4 5 4 5 5 5 5 4 4 3 3 4 4 4 4 4 3 2 0 3 1 2 5 6 6 5 6 4 6 6 5 6 5 5 5 5 5 5
Wind_Direction
232 245 250 185 195 208 215 204 174 235 174 195 163 157 156 143 119 100 107 85 71 104 144 162 140 140 150 150 148 143 138 143 156 162 167 192 218 249 279 285 299 359 350 307
234 241 243 251 227 201 214 224 225 207 212 175 173 112 107 115 109 105 95 82 43 116 130 128 142 145 144 134 136 136 132 156 170 157 162 178 216 256 262 274 244 352 306 286
216 236 255 271 232 230 207 205 188 206 177 123 112 115 124 120 120 130 120 88 60 60 168 142 141 137 139 132 132 134 142 161 160 159 166 195 222 240 260 242 178 270 281 291
175 171 238 245 267 275 207 193 116 110 122 125 126 119 110 117 121 118 100 87 59 37 153 187 160 156 143 148 149 149 152 148 161 165 182 201 208 233 247 213 224 262 283 292
140 178 226 258 265 290 173 164 128 119 116 120 108 84 31 82 93 109 106 92 89 260 239 169 155 148 138 148 144 145 156 156 169 168 187 199 218 218 233 236 245 251 259 274
134 165 207 225 248 187 96 134 153 139 141 139 128 102 195 101 95 88 85 84 330 301 354 148 157 139 141 151 156 163 168 170 169 174 179 199 208 215 226 232 240 254 289 304
284 187 249 201 140 81 115 208 86 96 108 103 93 144 157 97 98 112 82 285 236 230 238 186 155 151 161 159 173 175 166 171 154 153 172 204 231 248 253 254 281 295 296 164
290 55 161 351 42 119 177 76 93 92 106 108 107 100 92 83 66 48 44 28 356 255 215 156 153 150 157 170 175 167 172 134 135 151 170 200 245 243 238 244 264 280 302 74
156 113 187 52 44 52 99 95 74 92 93 98 100 95 92 85 71 57 48 31 9 18 338 195 172 170 163 202 179 160 124 119 106 79 310 249 246 247 263 256 261 267 154 41
97 338 129 139 124 135 97 100 90 79 79 79 85 84 87 85 78 61 31 22 25 23 11 2 28 54 71 69 12 52 81 67 57 41 353 311 282 271 251 264 211 151 106 64
82 90 78 67 88 91 88 87 82 73 73 72 72 64 90 89 85 91 59 21 23 17 15 359 4 74 89 118 116 110 110 138 127 154 238 245 261 306 256 309 212 152 118 126
105 266 117 101 82 76 76 77 78 85 74 71 81 68 87 79 75 101 70 51 3 334 353 341 57 116 133 151 135 139 155 175 202 215 235 245 245 127 52 66 48 88 105 134
126 25 79 81 78 79 82 72 74 78 76 71 52 69 50 101 60 24 219 114 61 27 345 349 123 133 151 158 145 156 183 198 226 234 244 240 211 168 139 42 10 84 63 123
20 66 51 40 70 80 94 107 88 78 76 160 182 163 183 188 224 267 247 120 85 3 316 310 144 156 181 173 157 209 236 251 242 236 243 278 181 130 101 152 152 168 205 210
89 95 114 91 65 64 65 64 192 240 243 334 304 243 231 223 223 232 173 139 85 337 307 154 155 143 178 186 197 198 200 238 252 200 129 126 97 123 117 132 129 160 194 139
92 85 92 112 143 109 76 334 318 287 296 61 42 10 347 282 222 204 125 106 52 102 44 346 156 126 149 104 101 128 164 156 121 166 86 355 107 120 115 145 165 180 220 202
92 102 94 81 37 66 47 4 4 357 352 67 11 319 324 347 52 101 73 11 108 83 43 61 137 159 115 109 132 142 137 131 145 119 111 109 101 113 132 156 137 181 168 166
77 76 60 54 43 36 17 40 36 29 16 352 51 341 327 345 78 97 45 49 100 70 58 53 37 65 87 95 130 159 200 144 159 121 121 117 136 167 163 137 188 221 169 133
79 79 38 57 48 40 26 26 43 20 7 4 20 3 8 347 325 92 74 64 78 82 30 54 80 65 51 41 102 237 33 95 88 84 119 140 141 125 122 152 206 174 142 127
343 85 84 80 61 55 40 31 25 13 15 349 349 342 342 23 112 99 93 87 78 85 6 101 77 80 37 6 35 40 65 97 114 125 106 161 163 124 64 290 128 110 127 117
54 78 66 61 57 57 50 25 4 4 332 333 326 314 312 130 80 110 122 107 114 67 48 95 103 147 101 344 50 65 80 76 89 103 132 294 179 113 29 82 81 89 89 86
45 69 68 69 74 54 43 28 5 350 5 5 355 5 102 97 92 65 63 115 128 39 224 92 59 18 121 349 100 107 109 129 137 112 284 262 129 84 105 92 84 75 85 82
60 76 86 80 83 79 78 36 16 4 22 6 4 30 77 58 72 120 92 92 101 46 79 84 76 65 36 351 267 233 193 175 160 114 92 83 98 99 83 87 82 78 85 87
89 80 88 94 116 138 57 43 109 66 10 7 25 6 64 93 59 69 97 84 95 98 101 102 32 287 270 273 260 242 157 78 89 90 77 83 87 82 84 99 102 103 100 89
107 96 130 158 156 145 134 116 96 73 106 50 47 36 26 43 104 100 97 109 131 138 137 209 266 283 164 145 83 77 80 82 98 99 110 115 108 93 81 91 101 105 101 106
137 162 174 203 197 174 172 181 150 150 149 109 78 79 65 63 83 91 85 106 99 59 31 18 18 31 68 63 94 94 90 75 81 102 89 98 118 121 123 130 116 111 114 130
220 204 190 251 234 220 248 187 174 166 180 169 147 155 154 148 148 156 181 198 208 205 221 223 143 82 89 127 127 128 119 97 76 83 113 115 119 128 131 137 145 135 127 118